IRIDIUM 14 [P]

Last updated on Thu Mar 07 2019 03:10:07 GMT+0000 (Coordinated Universal Time)

1 25777U 99032A 19065.47845057 .02576324 -15203-5 79375-3 0 9992 2 25777 86.6552 321.5019 0395357 165.0342 196.3036 15.47793168 44711

Satellite not in orbit